sat.trackr.live / text

‹ back to catalog

STARLINK-11302 [DTC]

NORAD 61204 · 2024-171E

PAYLOAD ACTIVE UNKNOWN

§ Identity

Operator
Country
US
Launch date
2024-09-20
Launch site
AFWTR
Launch vehicle
Mass (kg)
RCS (m²)

Purposes: comms

External: N2YO · Heavens-Above · Gunter

§ Orbital elements

Epoch: 2026-05-25T01:22:31.724832Z

Period
91.74 min
Inclination
53.1576°
Eccentricity
0.0000723
Mean motion
15.69710363 rev/d
Perigee alt
359.2 km
Apogee alt
360.2 km
Semi-major
6,737.9 km
B*
2.1569e-5
RAAN
159.7591°
Arg perigee
71.0900°
Mean anomaly
289.0196°
Rev number
9,639

§ Raw data

STARLINK-11302 [DTC]1 61204U 24171E   26145.05731163  .00002026  00000+0  21569-4 0  99982 61204  53.1576 159.7591 0000723  71.0900 289.0196 15.69710363 96391

JSON: /api/v1/satellites/61204 · /tle

For live sub-satellite position, see the globe view (requires WebGL).

§ Visibility from observer

Set your observer location to see the next 7 days of passes ≥ 10°. The values pass through the URL so the page stays shareable.

No JS? Fill the form by hand. The geolocation button needs JavaScript.